Starlink 30224

operational
NORAD ID: 57416 Int'l Des: 2023-102 Owner: SPXS Country: US Constellation: starlink
LEOCIRCULAR

Über Starlink 30224

Beschreibung wird geladen...

Live-Position

3D-Globus wird geladen...

Nächste Überflüge

Höhenverlauf

Altitude vs Time

uPlot chart will show altitude changes over time

Zweizeiliger Elementsatz

1 57416U 23102N 25352.21513235 -.00000724 00000-0 -38520-4 0 9997
2 57416 43.0053 331.3135 0001101 271.4442 88.6274 15.02534610133982
Epoch: 18. Dez. 2025 • Age: 17 hours

Aktueller Status

Höhe 559.9 km
Geschwindigkeit 7.59 km/s
Subsatellitenpunkt 27.88°N, 59.6°E
Startdatum 19. Juli 2023
Alter 2.4 years
Typ internet

Technische Details

Klassifizierung Payload
Masse 730.00 kg
Trockenmasse 700.00 kg
Gesamtmasse 730.00 kg
Länge 0.30 m
Durchmesser 4.10 m
Spannweite 29.00 m
Form Box + pan
Hersteller SPXS
Bus-Typ Starlink V2M
Phasenstatus In Orbit
Besitzer/Staat SPXS/US

Große Konstellationen

Loading constellations...